TimeIST,TemperatureF,Dew PointF,Humidity,Sea Level PressureIn,VisibilityMPH,Wind Direction,Wind SpeedMPH,Gust SpeedMPH,PrecipitationIn,Events,Conditions,WindDirDegrees,DateUTC
12:00 AM,51.8,46.4,82,30.36,6.2,West,9.2,-,N/A,,Mostly Cloudy,260,2011-10-07 23:00:00
12:30 AM,51.8,48.2,88,30.36,6.2,WSW,8.1,-,N/A,,Mostly Cloudy,250,2011-10-07 23:30:00
1:00 AM,52,48,82,30.37,12,West,11.2,,,,Mostly Cloudy,260,2011-10-08 00:00:00
1:00 AM,51.8,48.2,88,30.36,6.2,West,10.4,-,N/A,,Mostly Cloudy,260,2011-10-08 00:00:00
1:30 AM,51.8,48.2,88,30.36,6.2,WSW,10.4,-,N/A,,Partly Cloudy,250,2011-10-08 00:30:00
2:00 AM,51.8,48.2,88,30.33,6.2,WSW,9.2,-,N/A,,Scattered Clouds,250,2011-10-08 01:00:00
2:30 AM,53.6,50.0,88,30.33,6.2,SW,6.9,-,N/A,,Mostly Cloudy,230,2011-10-08 01:30:00
3:00 AM,51.8,50.0,94,30.33,3.7,WSW,9.2,-,N/A,,Light Drizzle,240,2011-10-08 02:00:00
3:30 AM,51.8,51.8,100,30.30,3.7,SW,5.8,-,N/A,,Light Drizzle,230,2011-10-08 02:30:00
4:00 AM,53.6,51.8,94,30.30,1.9,WSW,8.1,-,N/A,,Light Drizzle,240,2011-10-08 03:00:00
4:30 AM,53.6,53.6,100,30.30,3.1,West,13.8,-,N/A,,Light Drizzle,260,2011-10-08 03:30:00
5:00 AM,53.6,53.6,100,30.27,3.7,WSW,12.7,-,N/A,,Light Drizzle,250,2011-10-08 04:00:00
5:30 AM,53.6,53.6,100,30.27,2.5,WSW,16.1,-,N/A,,Light Drizzle,250,2011-10-08 04:30:00
6:00 AM,55.4,55.4,100,30.27,2.2,WSW,15.0,-,N/A,,Light Drizzle,250,2011-10-08 05:00:00
6:30 AM,55.4,55.4,100,30.27,2.5,WSW,11.5,-,N/A,,Light Drizzle,250,2011-10-08 05:30:00
7:00 AM,56,56,99,30.29,2,WSW,11.2,,,Rain,Light Drizzle,250,2011-10-08 06:00:00
7:00 AM,55.4,55.4,100,30.27,1.9,WSW,10.4,-,N/A,,Light Drizzle,250,2011-10-08 06:00:00
7:30 AM,57.2,55.4,94,30.27,3.7,West,10.4,-,N/A,,Light Drizzle,270,2011-10-08 06:30:00
8:00 AM,57.2,55.4,94,30.27,3.7,West,10.4,-,N/A,,Light Drizzle,260,2011-10-08 07:00:00
8:30 AM,57.2,55.4,94,30.27,6.2,West,10.4,-,N/A,,Overcast,260,2011-10-08 07:30:00
9:00 AM,57.2,55.4,94,30.27,4.3,WSW,9.2,-,N/A,,Overcast,250,2011-10-08 08:00:00
9:30 AM,57.2,57.2,100,30.27,1.0,WSW,9.2,-,N/A,,Light Drizzle,240,2011-10-08 08:30:00
10:00 AM,57.2,57.2,100,30.30,1.5,WSW,8.1,-,N/A,,Heavy Drizzle,240,2011-10-08 09:00:00
10:30 AM,57.2,57.2,100,30.30,1.1,WSW,10.4,-,N/A,,Drizzle,240,2011-10-08 09:30:00
11:00 AM,57.2,57.2,100,30.27,2.5,WSW,12.7,-,N/A,,Drizzle,250,2011-10-08 10:00:00
11:30 AM,59.0,57.2,94,30.27,2.5,WSW,12.7,-,N/A,,Drizzle,250,2011-10-08 10:30:00
12:00 PM,59.0,57.2,94,30.27,3.1,WSW,15.0,-,N/A,,Light Drizzle,240,2011-10-08 11:00:00
12:30 PM,59.0,57.2,94,30.27,1.2,WSW,10.4,-,N/A,,Light Drizzle,240,2011-10-08 11:30:00
1:00 PM,58,58,98,30.28,1,WSW,11.2,,,Rain,Light Drizzle,250,2011-10-08 12:00:00
1:00 PM,59.0,57.2,94,30.27,0.9,WSW,11.5,-,N/A,,Light Drizzle,250,2011-10-08 12:00:00
1:30 PM,57.2,57.2,100,30.27,0.9,WSW,13.8,-,N/A,,Light Drizzle,250,2011-10-08 12:30:00
2:00 PM,57.2,57.2,100,30.27,0.7,WSW,12.7,-,N/A,,Light Drizzle,250,2011-10-08 13:00:00
2:30 PM,57.2,57.2,100,30.27,0.7,WSW,13.8,-,N/A,,Light Drizzle,250,2011-10-08 13:30:00
3:00 PM,57.2,57.2,100,30.24,0.7,WSW,12.7,-,N/A,,Drizzle,240,2011-10-08 14:00:00
3:30 PM,57.2,57.2,100,30.24,0.4,WSW,10.4,-,N/A,Fog,Light Fog,240,2011-10-08 14:30:00
4:00 PM,57.2,57.2,100,30.24,0.7,WSW,13.8,-,N/A,,Light Drizzle,240,2011-10-08 15:00:00
4:30 PM,57.2,57.2,100,30.21,1.1,WSW,13.8,-,N/A,,Light Drizzle,240,2011-10-08 15:30:00
5:00 PM,59.0,59.0,100,30.21,3.7,WSW,16.1,-,N/A,,Mostly Cloudy,240,2011-10-08 16:00:00
5:30 PM,59.0,59.0,100,30.21,1.9,WSW,15.0,-,N/A,,Light Drizzle,240,2011-10-08 16:30:00
6:00 PM,59.0,59.0,100,30.21,3.7,WSW,17.3,-,N/A,,Mostly Cloudy,240,2011-10-08 17:00:00
6:30 PM,59.0,57.2,94,30.21,4.3,WSW,18.4,-,N/A,,Mostly Cloudy,250,2011-10-08 17:30:00
7:00 PM,59.0,57.2,94,30.21,4.3,WSW,17.3,-,N/A,,Mostly Cloudy,250,2011-10-08 18:00:00
7:30 PM,59.0,57.2,94,30.21,6.2,WSW,16.1,-,N/A,,Mostly Cloudy,240,2011-10-08 18:30:00
8:00 PM,59.0,57.2,94,30.21,6.2,WSW,17.3,-,N/A,,Mostly Cloudy,240,2011-10-08 19:00:00
8:30 PM,59.0,57.2,94,30.21,6.2,WSW,16.1,-,N/A,,Mostly Cloudy,240,2011-10-08 19:30:00
9:00 PM,59.0,57.2,94,30.21,6.2,WSW,16.1,-,N/A,,Mostly Cloudy,250,2011-10-08 20:00:00
9:30 PM,59.0,57.2,94,30.21,6.2,WSW,13.8,-,N/A,,Mostly Cloudy,250,2011-10-08 20:30:00
10:00 PM,59.0,57.2,94,30.18,6.2,WSW,15.0,-,N/A,,Mostly Cloudy,240,2011-10-08 21:00:00
10:30 PM,59.0,57.2,94,30.18,3.7,WSW,13.8,-,N/A,,Light Drizzle,250,2011-10-08 21:30:00
11:00 PM,59.0,57.2,94,30.18,3.1,WSW,15.0,-,N/A,,Light Drizzle,250,2011-10-08 22:00:00
11:30 PM,59.0,57.2,94,30.15,5.6,WSW,17.3,-,N/A,,Light Drizzle,250,2011-10-08 22:30:00